Tyler, TX

4:47 AM CST on February 24, 2018 (GMT -0600)
Tyler Pounds

Weather History for KTYR - July, 2012

Change the Weather History Date:

Thursday, July 5, 2012

  Actual Average Record
Temperature  
Mean Temperature 85 °F 82 °F  
Max Temperature 96 °F 91 °F 104 °F (1909)
Min Temperature 74 °F 73 °F 54 °F (1968)
Degree Days  
Heating Degree Days 0 0  
Month to date heating degree days 0 0  
Since 1 June heating degree days 0 0  
Since 1 July heating degree days 0 0  
Cooling Degree Days 20 17  
Month to date cooling degree days 96 85  
Year to date cooling degree days 1269 887  
Since 1 June cooling degree days 610 518  
Growing Degree Days 36 (Base 50)    
Moisture  
Dew Point 67 °F    
Average Humidity 59    
Maximum Humidity 82    
Minimum Humidity 36    
Precipitation  
Precipitation 0.00 in 0.12 in 2.61 in (2007)
Month to date precipitation 0.14 0.61  
Year to date precipitation 19.49 24.37  
Snow  
Snow 0.00 in - - ()
Month to date snowfall 0.0  
Since 1 June snowfall 0.0  
Since 1 July snowfall 0.0  
Snow Depth 0.00 in    
Sea Level Pressure  
Sea Level Pressure 30.01 in    
Wind  
Wind Speed 7 mph (South)    
Max Wind Speed 14 mph    
Max Gust Speed 18 mph    
Visibility 10 miles    
Events      
T = Trace of Precipitation, MM = Missing Value Source: NWS Daily Summary

Daily Weather History Graph

Daily Weather History Graph

Search for Another Location

Airport or City:

Trip Planner

Search our weather history database for the weather conditions in past years. The results will help you decide how hot, cold, wet, or windy it might be!

Date:

Astronomy

Jul. 05, 2012 Rise Set
Actual Time 6:20 AM CDT 8:32 PM CDT
Civil Twilight 5:52 AM CDT 9:00 PM CDT
Nautical Twilight 5:17 AM CDT 9:34 PM CDT
Astronomical Twilight 4:40 AM CDT 10:11 PM CDT
Moon 10:00 PM CDT (7/5) 8:24 AM CDT (7/5)
Length of Visible Light 15h 08m
Length of Day
14h 11m
Waning Gibbous, 95% of the Moon is Illuminated
Jul 5
Waning Gibbous
Jul 10
Last Quarter
Jul 18
New
Jul 26
First Quarter
Aug 1
Full

Hourly Weather History & Observations

Time (CDT) Temp. Heat Index Dew Point Humidity Pressure Visibility Wind Dir Wind Speed Gust Speed Precip Events Conditions
12:53 AM 79.0 °F - 69.1 °F 72% 29.98 in 10.0 mi South 6.9 mph - N/A   Clear
1:53 AM 78.8 °F - 69.8 °F 74% 30.00 in 10.0 mi South 5.8 mph - N/A   Clear
2:53 AM 77.0 °F - 70.0 °F 79% 29.99 in 10.0 mi South 6.9 mph - N/A   Clear
3:53 AM 77.0 °F - 70.0 °F 79% 29.99 in 10.0 mi SSW 6.9 mph - N/A   Clear
4:53 AM 78.1 °F - 70.0 °F 76% 30.00 in 10.0 mi SW 6.9 mph - N/A   Clear
5:53 AM 75.9 °F - 70.0 °F 82% 30.02 in 10.0 mi South 6.9 mph - N/A   Clear
6:53 AM 75.0 °F - 70.0 °F 84% 30.03 in 8.0 mi South 4.6 mph - N/A   Clear
7:53 AM 79.0 °F - 71.1 °F 77% 30.05 in 9.0 mi SW 6.9 mph - N/A   Clear
8:53 AM 81.0 °F 84.9 °F 71.1 °F 72% 30.06 in 10.0 mi SW 9.2 mph - N/A   Clear
9:53 AM 84.0 °F 89.0 °F 71.1 °F 65% 30.06 in 10.0 mi SW 8.1 mph - N/A   Scattered Clouds
10:53 AM 86.0 °F 90.1 °F 69.1 °F 57% 30.05 in 10.0 mi SSW 10.4 mph - N/A   Partly Cloudy
11:53 AM 88.0 °F 91.4 °F 68.0 °F 51% 30.05 in 10.0 mi SW 8.1 mph - N/A   Clear
12:53 PM 91.0 °F 93.0 °F 64.9 °F 42% 30.04 in 10.0 mi SSE 11.5 mph - N/A   Clear
1:53 PM 93.0 °F 94.2 °F 63.0 °F 37% 30.03 in 10.0 mi SSW 11.5 mph 17.3 mph N/A   Clear
2:53 PM 93.0 °F 95.0 °F 64.9 °F 39% 30.01 in 10.0 mi SSW 10.4 mph - N/A   Partly Cloudy
3:53 PM 96.1 °F 99.3 °F 66.0 °F 37% 30.00 in 10.0 mi SSE 11.5 mph 17.3 mph N/A   Clear
4:53 PM 93.9 °F 96.1 °F 64.9 °F 38% 29.98 in 10.0 mi WSW 8.1 mph - N/A   Partly Cloudy
5:53 PM 93.9 °F 95.2 °F 63.0 °F 36% 29.96 in 10.0 mi South 6.9 mph - N/A   Clear
6:53 PM 93.9 °F 95.2 °F 63.0 °F 36% 29.95 in 10.0 mi South 6.9 mph - N/A   Clear
7:53 PM 91.0 °F 92.6 °F 64.0 °F 41% 29.95 in 10.0 mi South 4.6 mph - N/A   Clear
8:53 PM 87.1 °F 89.2 °F 66.0 °F 49% 29.96 in 10.0 mi Calm Calm - N/A   Clear
9:53 PM 84.0 °F 86.5 °F 66.9 °F 56% 29.98 in 10.0 mi ESE 3.5 mph - N/A   Clear
10:53 PM 82.9 °F 85.4 °F 66.9 °F 58% 30.00 in 10.0 mi Calm Calm - N/A   Clear
11:53 PM 82.9 °F 84.6 °F 64.9 °F 54% 29.99 in 10.0 mi Calm Calm - N/A   Clear